Location: Cisewo
(53.3833°N, 14.9000°E)
Time: 02:22:17
(UTC+00:00)

BEESAT 3 - Pass Details

Date: 02 October 2021
Orbit: 481 x 510 km, 64.9° (Epoch: 16 October)

Event Time Altitude Azimuth Distance (km) Brightness Sun altitude
Rises 18:21:48 0° 315° (NW) 2,616 ? -16.7°
Reaches altitude 10° 18:24:12 10° 328° (NNW) 1,732 ? -17.0°
Maximum altitude 18:27:34 28° 28° (NNE) 995 ? -17.5°
Enters shadow 18:28:26 25° 52° (NE) 1,059 ? -17.6°
